Content
SEND FEEDBACK

Daily
Averages
Monthly
Summary
Canada

QUEBEC CITY, QUEBEC


Home > North America > Canada > Quebec
Elevation: 239 feet     Latitude: 46 48N     Longitude: 071 23W

WEATHER
 
SELECT A DAY
Number of Records: 192,552;   Date Range: 6/30/96 - 8/27/14
 
SHARE

PRINT THIS DATA

[ ← Previous Day ]
WEATHER ALMANAC - MAY 1, 2013
[ Next Day → ]
[ °C ]   °F
Weather ElementAverageHighLow
Temperature51.1 °F66.2 °F (3:00 pm)41 °F (6:00 am)
Dewpoint37.1 °F44 °F (2:00 pm) (7:00 pm)
Humidity65.7 %87 % (3:00 am)36 % (2:00 pm)
Barometer27.74 in30.49 in (10:00 am) (7:00 pm)
Wind Speed7.8 mph11.5 mph (5:00 am)
Weather ElementAverage
Visibility20.8 mi
Wind DirectionENE (67.6 °)

Weather ElementTotal
Precipitation---
Heating Degree Days11.4 (Base 65)
Growing Degree Days3.6 (Base 50)
Averaged from 34 records on May 1, 2013
WEATHER CONDITIONS BREAKOUT
WIND DIRECTION BREAKOUT
WEATHER BY HOUR - MAY 1, 2013
[ °C ]   °F
Local TimeTemperatureDewpointHumidityBarometerVisibilityWind DirectionWind SpeedGust SpeedPrecipitationEventsConditions
1:00 AM44.6 °F39.2 °F81 %30.35 in15.0 miENE (70°)8.1 mphClear
2:00 AM42.0 °F39.0 °F84 %30.36 inEast (80°)2.3 mph
2:00 AM42.8 °F37.4 °F81 %30.37 in15.0 miENE (60°)8.1 mphClear
3:00 AM42.8 °F39.2 °F87 %30.39 in15.0 miENE (60°)6.9 mphMostly Cloudy
4:00 AM42.8 °F37.4 °F81 %30.40 in15.0 miENE (70°)6.9 mphMostly Cloudy
5:00 AM42.0 °F38.0 °F83 %30.41 inEast (80°)6.9 mph
5:00 AM42.8 °F37.4 °F81 %30.42 in15.0 miENE (70°)11.5 mphMostly Cloudy
6:00 AM41.0 °F37.4 °F87 %30.44 in15.0 miENE (70°)5.8 mphMostly Cloudy
6:26 AM42.8 °F0.0 °F12.0 miNE (50°)8.1 mphMostly Cloudy
6:39 AM42.8 °F0.0 °F12.0 miENE (60°)6.9 mphMostly Cloudy
7:00 AM42.8 °F39.2 °F87 %30.45 in10.0 miENE (60°)9.2 mphMostly Cloudy
7:20 AM42.8 °F0.0 °F10.0 miENE (60°)11.5 mphMostly Cloudy
8:00 AM43.0 °F40.0 °F85 %30.46 inEast (80°)8.1 mph
8:00 AM42.8 °F39.2 °F87 %30.48 in12.0 miNE (50°)11.5 mphMostly Cloudy
9:00 AM46.4 °F41.0 °F81 %30.48 in25.0 miNE (50°)5.8 mphMostly Cloudy
10:00 AM50.0 °F41.0 °F71 %30.49 in25.0 miENE (70°)5.8 mphScattered Clouds
11:00 AM53.6 °F41.0 °F62 %30.48 in30.0 miENE (70°)9.2 mphPartly Cloudy
11:00 AM54.0 °F42.0 °F55 %30.45 inEast (90°)6.9 mph
12:00 PM57.2 °F41.0 °F55 %30.46 in30.0 miENE (70°)6.9 mphPartly Cloudy
1:00 PM62.6 °F42.8 °F48 %30.45 in30.0 miENE (60°)5.8 mphPartly Cloudy
2:00 PM64.0 °F44.0 °F36 %30.40 inEast (100°)6.9 mph
2:00 PM64.4 °F42.8 °F45 %30.43 in30.0 miNE (50°)8.1 mphMostly Cloudy
3:00 PM66.2 °F42.8 °F43 %30.42 in30.0 miENE (70°)9.2 mphMostly Cloudy
4:00 PM64.4 °F42.8 °F45 %30.40 in30.0 miENE (70°)11.5 mphMostly Cloudy
5:00 PM62.6 °F41.0 °F45 %30.41 in30.0 miENE (60°)9.2 mphMostly Cloudy
5:00 PM63.0 °F43.0 °F36 %30.38 inEast (90°)9.2 mph
6:00 PM60.8 °F42.8 °F52 %30.42 in30.0 miENE (70°)9.2 mphMostly Cloudy
7:00 PM59.0 °F41.0 °F51 %30.43 in30.0 miENE (60°)11.5 mphPartly Cloudy
8:00 PM54.0 °F42.0 °F52 %30.40 inEast (80°)9.2 mph
8:00 PM53.6 °F41.0 °F62 %30.43 in30.0 miEast (80°)10.4 mphPartly Cloudy
9:00 PM51.8 °F41.0 °F67 %30.45 in15.0 miENE (60°)6.9 mphPartly Cloudy
10:00 PM51.8 °F41.0 °F67 %30.45 in15.0 miNE (50°)5.8 mphClear
11:00 PM49.0 °F42.0 °F70 %30.43 inENE (60°)1.2 mph
11:00 PM50.0 °F41.0 °F71 %30.45 in15.0 miENE (70°)5.8 mphClear
Hourly data recorded from CYQB, located miles away from Quebec City, Quebec







STORIES FROM OUR PARTNERS